Location: Azat
(46.0765°N, 1.7600°E)
Time: 03:05:24
(UTC+00:00)

Iridium 4 Rocket - Pass Details

Date: 09 April 2020
Orbit: 586 x 904 km, 86.9° (Epoch: 02 June)

Event Time Altitude Azimuth Distance (km) Brightness Sun altitude
Rises 19:52:31 0° 9° (N) 2,850 6.7 -13.8°
Reaches altitude 10° 19:55:06 10° 24° (NNE) 1,926 5.6 -14.2°
Maximum altitude 19:58:28 23° 78° (ENE) 1,255 4.2 -14.7°
Enters shadow 19:59:06 23° 92° (E) 1,284 4.2 -14.8°
